QIANFAN-24

Satellite information

Favourite Embed

Satellite Type and Status

PAYLOADIN ORBIT

Key statistics

Satellite QIANFAN-24 at a glance.

Uptime

373

Days in orbit

Revolutions

≈ 14.2

Per day

Orbit

LEO

Low Earth Orbit

Inclination

89.0

Latest

Satellite identification and parameters

Extended collection of information and parameters for QIANFAN-24.

Object identification

Identified? True

Debris? False

Object name: QIANFAN-24

International designator: 2024-185F

Object number (NORAD): 61557

Object ID (CCSDS): 61557

Country: PEOPLES REPUBLIC OF CHINA (PRC)

Current information (Y/N): Y

RCS size: LARGE

Orbital parameters

Period: 101.144 minutes

Inclination: 88.9752 deg

SMA: 7190.983 km

Apoapsis: 821.241 km

Periapsis: 804.454 km

RAAN: 83.0781 deg

Eccentricy: 0.00116723

Argument of periapsis: 102.2864 deg

Mean anomaly: 257.9636 deg

Mean motion: 14.23706306 rev/day

Mean motion (dot): 0.00001113 rev/day2

B* drag term: 0.00048135001 1/REarth

Two-line elements (TLE)

Creation date: Oct. 23, 2025, 2:46 a.m.

Reference frame: TEME

Reference center: EARTH

Epoch: Oct. 22, 2025, 10:33 p.m. UTC

TLE line 0: 0 QIANFAN-24

TLE line 1: 1 61557U 24185F 25295.93979850 .00001113 00000-0 48135-3 0 9997

TLE line 2: 2 61557 88.9752 83.0781 0011672 102.2864 257.9636 14.23706306 62796

Live tracking on map

Real-time ground track for satellite QIANFAN-24.

In-orbit conjunctions

There are no conjunctions computed for QIANFAN-24, at the moment. Check back to stay up to date, as we update our databases every day.

Go to all conjunctions

Associated space launch

18 Low Earth Orbit communication satellites with Ku, Q and V band payloads for the G60 constellation operated by Shanghai Spacecom Satellite Technology (SSST) with funding backed by the Shanghai local government. Initial constellation will consist of 1296 satellites by 2027 with long term plans to expand it to 12000 satellites.

QIANFAN-24 was lifted into orbit during the mission ‘Long March 6A | G60 Polar Group 02’, on board a Long March 6A space rocket.

The launch took place on Oct. 15, 2024, 11:06 a.m. from Launch Complex 9A.

For more information about the launch, click the button.

Launch to space Long March 6A | G60 Polar Group 02
Long March 6A | G60 Polar Group 02

Agency: N/A

Status: Launch Successful

Launch date: Oct. 15, 2024, 11:06 a.m. UTC

Rocket: Long March 6A

Launch pad: Launch Complex 9A

Location: Taiyuan Satellite Launch Center, People's Republic of China

...

Latest news about this satellite

News about space launch
Launch Roundup: Europa Clipper launches, Starlink launches return

The Federal Aviation Administration’s (FAA) recent decision to clear SpaceX’s Falcon 9 for a return to all flights paved the way for a busy week of launches. Before Falcon 9 returned to flying regular Starlink missions, though, a Falcon Heavy launch with ...

News about space launch
China launches second batch of 18 satellites for Thousand Sails megaconstellation

MILAN — China successfully launched the second group of 18 satellites for the planned 14,000-satellite Thousand Sails megaconstellation Tuesday. A Long March 6A rocket lifted off from Taiyuan Satellite Launch […]


Newsletter sign-up

Weekly statistics, charts and insights to help you stay on top of the space industry.